Home   Weather   L'viv   Past weeks

Flag for Ukraine Past Weather in L'viv, Ukraine — Yesterday and Last 2 Weeks

46 °F

Low clouds.

Feels Like: 41 °F
Forecast: 45 / 51 °F
Wind: 13 mph from Southeast

Location: L'Viv Airport

Current Time: Oct 24, 2016 at 8:24:39 AM

Latest Report: Oct 24, 2016 at 8:00 AM

Visibility: 5 mi

Pressure: 30.24 "Hg

Humidity: 87%

Dew Point: 43 °F

Location of L'vivLocation

Past Weather in L'viv — Graph


L'viv Temperature Yesterday

Maximum temperature yesterday: 50 °F (at 1:30 PM)
Minimum temperature yesterday: 34 °F (at 4:00 AM)
Average temperature yesterday: 43 °F

High & Low Weather Summary for the Past Weeks

High52 °F (Oct 10, 2:00 PM)100% (Oct 11, 7:30 AM)30.51 "Hg (Oct 11, 7:30 AM)
Low34 °F (Oct 14, 2:00 AM)43% (Oct 17, 2:30 PM)29.95 "Hg (Oct 22, 6:00 AM)
Average42 °F84%30.18 "Hg
* Reported Oct 9 7:00 AM — Oct 24 7:00 AM, L'viv, Weather by CustomWeather, © 2016

Note: Actual official high and low records may vary slightly from our data, if they occured in-between our weather recording intervals... More about our weather records


L'viv Weather History for the Previous 24 Hours

Scroll right to see more
Time TempWeatherWind HumidityBarometerVisibility
7:00 AM
Mon, Oct 24
46 °FLow clouds.13 mph87%30.24 "HgN/A
6:30 AM46 °FLow clouds.10 mph87%30.24 "HgN/A
6:00 AM46 °FLow clouds.8 mph87%30.24 "HgN/A
5:30 AM46 °FLow clouds.10 mph87%30.24 "HgN/A
5:00 AM46 °FLow clouds.10 mph87%30.24 "HgN/A
4:30 AM46 °FLow clouds.10 mph87%30.24 "HgN/A
4:00 AM45 °FLow clouds.10 mph93%30.24 "Hg6 mi
3:30 AM45 °FLow clouds.13 mph93%30.24 "Hg6 mi
3:00 AM45 °FLow clouds.10 mph93%30.24 "Hg5 mi
2:30 AM45 °FLow clouds.10 mph93%30.24 "Hg6 mi
2:00 AM45 °FLow clouds.8 mph93%30.24 "HgN/A
1:30 AM46 °FLow clouds.8 mph87%30.24 "HgN/A
1:00 AM46 °FLow clouds.10 mph87%30.24 "HgN/A
12:30 AM46 °FLow clouds.10 mph87%30.24 "HgN/A
12:00 AM46 °FLow clouds.10 mph87%30.24 "HgN/A
11:30 PM
Sun, Oct 23
46 °FLow clouds.10 mph87%30.24 "HgN/A
11:00 PM46 °FPassing clouds.8 mph93%30.24 "HgN/A
10:30 PM46 °FPassing clouds.8 mph87%30.24 "HgN/A
10:00 PM46 °FPassing clouds.10 mph87%30.24 "HgN/A
9:30 PM46 °FPassing clouds.10 mph87%30.24 "HgN/A
9:00 PM45 °FPassing clouds.8 mph93%30.21 "HgN/A
8:30 PM45 °FPassing clouds.6 mph87%30.24 "HgN/A
8:00 PM45 °FPassing clouds.6 mph87%30.21 "HgN/A
7:30 PM46 °FPassing clouds.6 mph82%30.21 "HgN/A
7:00 PM46 °FPassing clouds.10 mph82%30.21 "HgN/A
6:30 PM46 °FPassing clouds.8 mph82%30.21 "HgN/A
6:00 PM48 °FPartly sunny.8 mph76%30.21 "HgN/A
5:30 PM48 °FPartly sunny.8 mph76%30.21 "HgN/A
5:00 PM50 °FPartly sunny.10 mph71%30.21 "HgN/A
4:30 PM50 °FPartly sunny.10 mph71%30.21 "HgN/A
4:00 PM50 °FPartly sunny.8 mph76%30.21 "HgN/A
3:30 PM50 °FPartly sunny.10 mph76%30.21 "HgN/A
3:00 PM50 °FPartly sunny.10 mph76%30.21 "HgN/A
2:30 PM50 °FPartly sunny.10 mph76%30.21 "HgN/A
2:00 PM50 °FPartly sunny.10 mph76%30.21 "HgN/A
1:30 PM50 °FPartly sunny.8 mph82%30.21 "HgN/A
1:00 PM48 °FPartly sunny.8 mph82%30.21 "HgN/A
12:30 PM48 °FPartly sunny.10 mph87%30.21 "HgN/A
12:00 PM46 °FPartly sunny.8 mph93%30.21 "HgN/A
11:30 AM46 °FLow clouds.8 mph93%30.21 "Hg5 mi
11:00 AM45 °FLow clouds.10 mph100%30.21 "Hg4 mi
10:30 AM45 °FLow clouds.8 mph93%30.21 "Hg4 mi
10:00 AM45 °FLow clouds.10 mph93%30.21 "Hg4 mi
9:30 AM45 °FFog.6 mph93%30.18 "Hg1 mi
9:00 AM43 °FFog.6 mph93%30.18 "Hg0 mi
8:30 AM41 °FFog.8 mph100%30.18 "Hg0 mi
8:00 AM39 °FFog.3 mph100%30.18 "Hg0 mi
Weather by CustomWeather, © 2016

See weather overviewHow to use our weather pages